Peoria, IL

7:25 AM CST on December 14, 2019 (GMT -0600)
Greater Peoria Regional

Weather History for KPIA - November, 2019

Change the Weather History Date:

Tuesday, November 12, 2019

  Actual Average Record
Temperature  
Mean Temperature 12 °F 44 °F  
Max Temperature 18 °F 52 °F 75 °F (1902)
Min Temperature 5 °F 35 °F 9 °F (1986)
Degree Days  
Heating Degree Days 54 21  
Month to date heating degree days 356 227  
Since 1 July heating degree days 775 673  
Cooling Degree Days 0 0  
Month to date cooling degree days 0 0  
Year to date cooling degree days 1232 1039  
Moisture  
Dew Point -0 °F    
Average Humidity 58    
Maximum Humidity 83    
Minimum Humidity 40    
Precipitation  
Precipitation 0.00 in 0.10 in 0.94 in (1951)
Month to date precipitation 0.26 1.23  
Year to date precipitation 46.76 32.17  
Snow  
Snow 0.00 in 0.00 in 3.40 in (1959)
Month to date snowfall 1.8 0.1  
Since 1 July snowfall 6.0 0.1  
Since 1 September snowfall 6.0 0.1  
Snow Depth 0.00 in    
Sea Level Pressure  
Sea Level Pressure 30.55 in    
Wind  
Wind Speed 6 mph ()    
Max Wind Speed 13 mph    
Max Gust Speed 19 mph    
Visibility 10.0 miles    
Events      
T = Trace of Precipitation, MM = Missing Value Source: Averaged Metar Reports

Daily Weather History Graph

Daily Weather History Graph

Search for Another Location

Airport or City:

Astronomy

Nov. 12, 2019 Rise Set
Actual Time 6:41 AM CST 4:43 PM CST
Civil Twilight 6:12 AM CST 5:12 PM CST
Nautical Twilight 5:39 AM CST 5:45 PM CST
Astronomical Twilight 5:07 AM CST 6:17 PM CST
Moon 5:10 PM CST (11/12) 6:32 AM CST (11/12)
Length of Visible Light 11h 00m
Length of Day
10h 01m
Full, 100% of the Moon is Illuminated
Nov 12
Full
Nov 19
Last Quarter
Nov 26
New
Dec 4
First Quarter
Dec 11
Full

Hourly Weather History & Observations

Time (CST) Temp. Windchill Dew Point Humidity Pressure Visibility Wind Dir Wind Speed Gust Speed Precip Events Conditions
12:54 AM 12.0 °F 0.5 °F 1.0 °F 61% 30.56 in 10.0 mi NW 8.1 mph - N/A   Clear
1:54 AM 10.9 °F -0.8 °F -0.0 °F 61% 30.56 in 10.0 mi NW 8.1 mph - N/A   Clear
2:54 AM 10.0 °F -1.9 °F -0.0 °F 64% 30.56 in 10.0 mi NNW 8.1 mph - N/A   Clear
3:54 AM 9.0 °F -0.9 °F -0.0 °F 67% 30.57 in 10.0 mi NNW 5.8 mph - N/A   Clear
4:54 AM 8.1 °F -2.0 °F -0.9 °F 67% 30.58 in 10.0 mi NNW 5.8 mph - N/A   Clear
5:54 AM 7.0 °F -4.5 °F -0.9 °F 70% 30.60 in 10.0 mi NW 6.9 mph - N/A   Clear
6:54 AM 5.0 °F -4.1 °F -0.9 °F 76% 30.61 in 10.0 mi NW 4.6 mph - N/A   Clear
7:54 AM 8.1 °F -5.3 °F -0.9 °F 67% 30.63 in 10.0 mi NW 9.2 mph - N/A   Clear
8:05 AM 8.6 °F -1.3 °F -0.4 °F 67% 30.59 in 10.0 mi NNW 5.8 mph - N/A   Clear
8:54 AM 10.9 °F 0.2 °F -0.9 °F 59% 30.63 in 10.0 mi NNW 6.9 mph - N/A   Clear
9:12 AM 12.2 °F 1.7 °F -0.4 °F 57% 30.59 in 10.0 mi NNW 6.9 mph - N/A   Clear
9:54 AM 14.0 °F 3.9 °F -0.9 °F 52% 30.63 in 10.0 mi NNW 6.9 mph - N/A   Clear
10:54 AM 16.0 °F 5.3 °F -2.0 °F 45% 30.62 in 10.0 mi West 8.1 mph - N/A   Clear
11:54 AM 17.1 °F 7.6 °F -2.0 °F 43% 30.61 in 10.0 mi NW 6.9 mph - N/A   Clear
12:54 PM 17.1 °F 5.8 °F -2.9 °F 41% 30.58 in 10.0 mi WNW 9.2 mph - N/A   Clear
1:05 PM 17.6 °F 9.3 °F -2.2 °F 42% 30.54 in 10.0 mi WNW 5.8 mph - N/A   Clear
1:54 PM 18.0 °F 6.9 °F -0.0 °F 45% 30.56 in 10.0 mi West 9.2 mph - N/A   Clear
2:54 PM 18.0 °F 8.7 °F -2.9 °F 40% 30.55 in 10.0 mi West 6.9 mph - N/A   Clear
3:54 PM 17.1 °F 7.6 °F -2.0 °F 43% 30.55 in 10.0 mi WNW 6.9 mph - N/A   Clear
4:54 PM 16.0 °F 10.4 °F -0.9 °F 47% 30.53 in 10.0 mi WNW 3.5 mph - N/A   Clear
5:54 PM 14.0 °F 8.2 °F -0.0 °F 54% 30.52 in 10.0 mi WNW 3.5 mph - N/A   Clear
6:54 PM 12.9 °F 6.9 °F 1.9 °F 62% 30.51 in 10.0 mi West 3.5 mph - N/A   Clear
7:54 PM 12.0 °F 4.1 °F 1.0 °F 61% 30.48 in 10.0 mi SSW 4.6 mph - N/A   Clear
8:54 PM 10.9 °F 0.2 °F 1.9 °F 67% 30.46 in 10.0 mi South 6.9 mph - N/A   Clear
9:54 PM 10.9 °F -0.8 °F 1.9 °F 67% 30.45 in 10.0 mi South 8.1 mph - N/A   Clear
10:54 PM 10.9 °F -1.8 °F 3.0 °F 70% 30.42 in 10.0 mi South 9.2 mph - N/A   Clear
11:54 PM 12.9 °F -1.6 °F 3.9 °F 67% 30.41 in 10.0 mi South 12.7 mph - N/A   Clear